Location: Walnut Point State Park
(39.6958°N, 88.0345°W)
Time: 09:37:17
(UTC-06:00)

Amateur Radio Satellites - All Passes

Search period start: 06 February 2016 09:07
Search period end: 07 February 2016 09:07
Location: Walnut Point State Park, 39.6958°N, 88.0345°W

Satellite Date Start Highest point End Downlink Frequencies (MHz)
Time Altitude Azimuth
QB50P2 06 Feb 09:07:36 09:08:59 11° 63° (ENE) 09:10:22 145.880/145.840
O/OREOS (USA 219) 06 Feb 09:14:03 09:18:08 35° 298° (WNW) 09:22:16 437.305
FUNcube-1 06 Feb 09:15:26 09:19:32 53° 100° (E) 09:23:41 145.935
AAUSAT CUBESAT 2 06 Feb 09:24:01 09:27:48 34° 289° (WNW) 09:31:37 437.432
CUBEBUG 2 06 Feb 09:27:18 09:31:21 50° 286° (WNW) 09:35:25 437.445
CANX-2 06 Feb 09:29:48 09:31:58 14° 295° (WNW) 09:34:08 2200.000
BUGSAT 1 06 Feb 09:34:02 09:34:29 10° 63° (ENE) 09:34:56 437.445
DELFI C3 06 Feb 09:35:11 09:39:14 68° 101° (ESE) 09:43:15 145.870
POPSAT HIP 1 06 Feb 09:36:17 09:39:35 22° 68° (ENE) 09:42:53 437.405
UWE-3 06 Feb 09:36:51 09:40:56 55° 286° (WNW) 09:45:04 435.000/436.395/437.385
UNISAT 6 06 Feb 09:37:29 09:41:51 81° 256° (WSW) 09:46:11 437.425
AO-85 06 Feb 09:41:00 09:43:42 14° 105° (ESE) 09:46:26 145.980
NANOSAT C BR1 06 Feb 09:43:22 09:46:53 26° 69° (ENE) 09:50:24 145.865
DUCHIFAT 1 06 Feb 09:46:37 09:50:11 27° 69° (ENE) 09:53:44 145.980
QB50P1 06 Feb 09:48:49 09:52:34 31° 70° (ENE) 09:56:18 145.935-145.965
Oscar 11 06 Feb 09:54:58 09:59:01 39° 288° (WNW) 10:03:04 145.826/435.025
HUMSAT D 06 Feb 09:58:36 10:02:39 49° 100° (E) 10:06:43 437.325/437.525
HO-68 06 Feb 10:03:33 10:08:48 22° 302° (WNW) 10:14:02 435.675
AIST 1 06 Feb 10:07:33 10:11:09 25° 89° (E) 10:14:48
GONETS M04 06 Feb 10:16:02 10:24:08 43° 286° (WNW) 10:32:20
PCSat 06 Feb 10:19:49 10:23:46 21° 106° (ESE) 10:27:44 145.827
ANTELSAT 06 Feb 10:23:35 10:27:10 25° 264° (W) 10:30:45 437.575/2403.000
RS-15 06 Feb 10:28:31 10:37:21 29° 102° (ESE) 10:46:29 29.354- 29.394
Cosmos 2499 06 Feb 10:31:37 10:40:11 73° 279° (W) 10:49:07 435.465 / 435.565
TIGRISAT 06 Feb 10:32:13 10:35:33 21° 265° (W) 10:38:52 435.000
50 SAT 06 Feb 10:36:49 10:40:08 28° 97° (E) 10:43:26 437.505
POLYITAN 1 06 Feb 10:39:09 10:43:23 68° 259° (WSW) 10:47:36 437.675
VELOX 1 06 Feb 10:39:43 10:43:25 26° 96° (E) 10:47:05 145.980
QB50P2 06 Feb 10:40:02 10:44:15 64° 259° (W) 10:48:29 145.880/145.840
ZACube-1 06 Feb 10:41:36 10:44:12 16° 294° (WNW) 10:46:50 437.345
FUNcube-1 06 Feb 10:53:26 10:55:22 13° 295° (WNW) 10:57:17 145.935
JAS-2 06 Feb 10:53:37 10:57:07 14° 56° (ENE) 11:00:30 435.910
AISAT 06 Feb 10:55:16 10:59:27 40° 99° (E) 11:03:34 437.250
ESTCUBE 1 06 Feb 11:00:40 11:05:08 51° 100° (E) 11:09:31 437.505/2401.250
BUGSAT 1 06 Feb 11:05:03 11:09:17 72° 258° (WSW) 11:13:29 437.445
POPSAT HIP 1 06 Feb 11:11:30 11:15:14 29° 263° (W) 11:18:57 437.405
Oscar 19 06 Feb 11:11:32 11:14:41 16° 62° (ENE) 11:17:50 437.125/150
AO-85 06 Feb 11:18:10 11:23:30 80° 303° (WNW) 11:29:02 145.980
NANOSAT C BR1 06 Feb 11:19:02 11:22:33 25° 264° (W) 11:26:04 145.865
DUCHIFAT 1 06 Feb 11:22:24 11:25:50 24° 265° (W) 11:29:17 145.980
QB50P1 06 Feb 11:25:08 11:28:22 21° 265° (W) 11:31:37 145.935-145.965
CUBEBUG 1 06 Feb 11:26:45 11:31:08 74° 102° (ESE) 11:35:27 437.445
UKube-1 06 Feb 11:30:35 11:34:56 89° 90° (E) 11:39:15 .
DX 1 06 Feb 11:35:23 11:39:44 68° 286° (WNW) 11:44:02 434.975-435.025
HUMSAT D 06 Feb 11:35:48 11:37:53 14° 295° (WNW) 11:39:59 437.325/437.525
AIST 1 06 Feb 11:45:01 11:48:40 25° 285° (WNW) 11:52:21
SPROUT 06 Feb 11:46:58 11:51:02 42° 99° (E) 11:55:04 437.525
PCSat 06 Feb 12:01:29 12:06:45 52° 303° (WNW) 12:12:04 145.827
50 SAT 06 Feb 12:11:17 12:13:59 19° 292° (WNW) 12:16:40 437.505
TISAT 1 06 Feb 12:11:47 12:15:25 28° 97° (E) 12:19:00 437.305
ITAMSAT 1 06 Feb 12:12:51 12:14:47 12° 59° (ENE) 12:16:44 435.822/435.867
VELOX 1 06 Feb 12:16:05 12:19:50 27° 292° (WNW) 12:23:33 145.980
Cosmos 2499 06 Feb 12:30:32 12:35:02 15° 301° (WNW) 12:39:36 435.465 / 435.565
AISAT 06 Feb 12:32:36 12:35:37 18° 295° (WNW) 12:38:39 437.250
JAS-2 06 Feb 12:33:18 12:41:02 70° 73° (ENE) 12:48:14 435.910
RS-15 06 Feb 12:37:23 12:48:31 76° 304° (NW) 13:00:19 29.354- 29.394
ESTCUBE 1 06 Feb 12:38:47 12:41:31 16° 296° (WNW) 12:44:13 437.505/2401.250
AO-7 06 Feb 12:38:56 12:43:29 16° 48° (NE) 12:48:01 29.400- 29.500
BEESAT 06 Feb 12:41:22 12:42:19 10° 90° (E) 12:43:15 436.000
Gurwin Techsat 1B 06 Feb 12:47:22 12:52:26 47° 71° (ENE) 12:57:31 435.225
Oscar 19 06 Feb 12:48:20 12:53:28 63° 259° (WSW) 12:58:38 437.125/150
DANDE 06 Feb 12:50:07 12:57:11 42° 71° (ENE) 13:02:44 436.750
CUSAT 1 06 Feb 12:50:46 12:57:10 67° 77° (ENE) 13:01:56 437.405
AO-85 06 Feb 13:01:37 13:04:55 16° 322° (NW) 13:08:15 145.980
CUBEBUG 1 06 Feb 13:05:55 13:06:47 10° 298° (WNW) 13:07:39 437.445
YUBILEINY 06 Feb 13:06:33 13:13:20 24° 66° (ENE) 13:20:03 435.215
SO-50 06 Feb 13:12:18 13:15:39 18° 42° (NE) 13:18:55 436.795
SPROUT 06 Feb 13:23:59 13:26:40 16° 294° (WNW) 13:29:21 437.525
SWISSCUBE 06 Feb 13:30:09 13:34:41 40° 98° (E) 13:39:10 437.505
SRMSAT 06 Feb 13:42:06 13:42:39 10° 181° (S) 13:43:11 437.500
TISAT 1 06 Feb 13:47:40 13:50:57 23° 292° (WNW) 13:54:12 437.305
ITAMSAT 1 06 Feb 13:48:19 13:53:30 87° 259° (WSW) 13:58:44 435.822/435.867
ITUPSAT 1 06 Feb 14:04:40 14:09:31 82° 105° (ESE) 14:14:19 437.325
HORYU 2 06 Feb 14:12:12 14:14:05 13° 63° (ENE) 14:15:58 437.375
M-CUBED/EXP-1 PRIME 06 Feb 14:13:46 14:17:00 27° 67° (ENE) 14:20:04 437.505
BEESAT 06 Feb 14:15:49 14:20:36 76° 286° (WNW) 14:25:23 436.000
JAS-2 06 Feb 14:20:31 14:26:24 23° 268° (W) 14:32:02 435.910
AO-7 06 Feb 14:26:29 14:34:46 70° 68° (ENE) 14:43:06 29.400- 29.500
AUBIESAT-1 06 Feb 14:26:58 14:30:20 32° 68° (ENE) 14:33:31 437.475
Gurwin Techsat 1B 06 Feb 14:28:42 14:32:36 21° 267° (W) 14:36:32 435.225
DANDE 06 Feb 14:33:32 14:39:51 32° 275° (W) 14:44:57 436.750
CUSAT 1 06 Feb 14:35:14 14:38:13 14° 282° (WNW) 14:40:52 437.405
MOZHAYETS 4 06 Feb 14:48:38 14:50:41 13° 90° (E) 14:52:44
SO-50 06 Feb 14:51:52 14:56:38 66° 241° (WSW) 15:01:14 436.795
RS-15 06 Feb 14:54:04 15:03:22 28° 332° (NNW) 15:13:06 29.354- 29.394
YUBILEINY 06 Feb 15:02:11 15:11:00 74° 266° (W) 15:19:45 435.215
Cosmos 2491 06 Feb 15:04:16 15:12:51 65° 92° (E) 15:21:26 435.465 / 435.565
SWISSCUBE 06 Feb 15:08:36 15:12:12 22° 295° (WNW) 15:15:48 437.505
Cosmos 2504 06 Feb 15:13:08 15:20:41 32° 70° (ENE) 15:27:48 435.465 / 435.565
STARS 06 Feb 15:15:10 15:19:08 33° 98° (E) 15:23:05 437.465
KKS-1 06 Feb 15:21:32 15:25:59 77° 102° (ESE) 15:30:24 437.445
ITUPSAT 1 06 Feb 15:45:09 15:46:39 11° 300° (WNW) 15:48:08 437.325
HORYU 2 06 Feb 15:45:45 15:50:07 62° 259° (WSW) 15:54:31 437.375
M-CUBED/EXP-1 PRIME 06 Feb 15:48:58 15:51:38 18° 259° (WSW) 15:54:12 437.505
AUBIESAT-1 06 Feb 16:02:42 16:04:57 15° 260° (W) 16:07:08 437.475
ISS 06 Feb 16:18:47 16:21:46 35° 136° (SE) 16:24:46 145.825
AO-7 06 Feb 16:21:39 16:28:08 25° 266° (W) 16:34:40 29.400- 29.500
MOZHAYETS 4 06 Feb 16:23:39 16:28:14 60° 286° (WNW) 16:32:48
CUTE-I 06 Feb 16:38:01 16:42:46 34° 68° (ENE) 16:47:32 437.470
Cubesat XI-IV 06 Feb 16:50:11 16:55:12 44° 70° (ENE) 17:00:15 437.490
STARS 06 Feb 16:52:01 16:55:18 21° 293° (WNW) 16:58:34 437.465
CUBESAT XI-V 06 Feb 16:54:12 16:58:16 28° 95° (E) 17:02:17 437.345
GOMX 1 06 Feb 16:55:32 16:58:20 14° 63° (ENE) 17:01:04 467.674
KKS-1 06 Feb 17:01:08 17:01:54 10° 299° (WNW) 17:02:41 437.445
YUBILEINY 06 Feb 17:02:49 17:06:07 13° 286° (WNW) 17:09:24 435.215
Cosmos 2491 06 Feb 17:03:18 17:10:19 27° 292° (WNW) 17:17:23 435.465 / 435.565
BRITE-PL 06 Feb 17:05:36 17:10:39 34° 69° (ENE) 17:15:39 437.365/2234.400
Cosmos 2504 06 Feb 17:06:04 17:14:28 55° 270° (W) 17:22:19 435.465 / 435.565
RS-15 06 Feb 17:13:27 17:21:39 20° 9° (N) 17:30:02 29.354- 29.394
LilacSat-2 06 Feb 17:40:55 17:44:43 62° 260° (W) 17:48:31 437.200
STRAND 1 06 Feb 17:43:06 17:44:38 11° 89° (E) 17:46:09 437.568
O/OREOS (USA 219) 06 Feb 17:45:14 17:49:29 36° 63° (ENE) 17:53:43 437.305
ISS 06 Feb 17:55:25 17:58:15 27° 332° (NNW) 18:01:06 145.825
BEESAT 3 06 Feb 17:59:38 18:03:36 75° 302° (WNW) 18:07:37 437.485
AO-85 06 Feb 18:12:30 18:15:06 14° 36° (NE) 18:17:36 145.980
SEEDS 06 Feb 18:16:28 18:17:13 10° 63° (ENE) 18:17:59 437.485
BEESAT 2 06 Feb 18:17:04 18:21:05 76° 301° (WNW) 18:25:08 435.950
CINEMA 3 06 Feb 18:17:54 18:20:26 15° 65° (ENE) 18:22:54 145.822/145.860
CUTE-I 06 Feb 18:18:14 18:22:48 29° 264° (W) 18:27:24 437.470
GOMX 1 06 Feb 18:30:17 18:35:46 78° 257° (WSW) 18:41:06 467.674
DOVE 4 06 Feb 18:30:32 18:35:38 58° 74° (ENE) 18:40:31 437.250
GONETS M04 06 Feb 18:31:21 18:37:09 19° 63° (ENE) 18:42:55
Cubesat XI-IV 06 Feb 18:31:21 18:35:27 22° 266° (W) 18:39:34 437.490
CUBESAT XI-V 06 Feb 18:31:33 18:35:34 28° 291° (WNW) 18:39:33 437.345
AAUSAT CUBESAT 2 06 Feb 18:40:30 18:42:02 12° 64° (ENE) 18:43:33 437.432
HO-68 06 Feb 18:42:00 18:48:50 50° 67° (ENE) 18:55:43 435.675
BRITE-PL 06 Feb 18:43:54 18:49:00 34° 264° (W) 18:54:07 437.365/2234.400
CANX-2 06 Feb 18:44:29 18:48:15 33° 71° (ENE) 18:52:01 2200.000
CUBEBUG 2 06 Feb 18:51:36 18:52:29 11° 63° (ENE) 18:53:22 437.445
PCSat 06 Feb 19:07:48 19:11:23 17° 44° (NE) 19:14:58 145.827
Oscar 11 06 Feb 19:15:04 19:16:59 13° 64° (ENE) 19:18:55 145.826/435.025
STRAND 1 06 Feb 19:19:11 19:24:22 80° 284° (WNW) 19:29:31 437.568
O/OREOS (USA 219) 06 Feb 19:25:12 19:28:37 21° 259° (WSW) 19:32:02 437.305
RS-15 06 Feb 19:27:33 19:38:49 41° 41° (NE) 19:50:13 29.354- 29.394
ISS 06 Feb 19:34:34 19:35:34 11° 352° (N) 19:36:34 145.825
CUTE 1.7 + AOD 2 06 Feb 19:35:18 19:39:29 71° 259° (W) 19:43:42 437.475
COMPASS 1 06 Feb 19:40:40 19:44:46 72° 76° (ENE) 19:48:56 437.405
AIST 2 06 Feb 19:43:25 19:47:35 90° 88° (E) 19:51:47 435.215
SEEDS 06 Feb 19:48:13 19:52:20 67° 258° (WSW) 19:56:32 437.485
AO-85 06 Feb 19:51:28 19:56:38 73° 57° (ENE) 20:01:20 145.980
CINEMA 3 06 Feb 19:52:29 19:57:09 57° 260° (W) 20:01:38 145.822/145.860
ZACube-1 06 Feb 19:59:33 20:03:13 29° 71° (ENE) 20:06:51 437.345
PRISM 06 Feb 20:07:09 20:11:19 67° 286° (WNW) 20:15:27 437.425
FUNcube-1 06 Feb 20:10:18 20:14:11 36° 72° (ENE) 20:18:02 145.935
DOVE 4 06 Feb 20:10:28 20:13:35 16° 268° (W) 20:16:39 437.250
AAUSAT CUBESAT 2 06 Feb 20:12:58 20:17:01 57° 260° (W) 20:21:07 437.432
DELFI C3 06 Feb 20:20:48 20:24:23 34° 72° (ENE) 20:28:00 145.870
CANX-2 06 Feb 20:21:08 20:24:10 19° 267° (W) 20:27:13 2200.000
CUBEBUG 2 06 Feb 20:24:11 20:28:34 70° 259° (WSW) 20:32:51 437.445
Cosmos 2499 06 Feb 20:24:55 20:32:53 41° 73° (ENE) 20:40:15 435.465 / 435.565
GONETS M04 06 Feb 20:26:20 20:35:11 89° 268° (W) 20:44:02
HO-68 06 Feb 20:30:36 20:36:44 30° 264° (W) 20:42:56 435.675
UWE-3 06 Feb 20:32:41 20:37:01 79° 258° (WSW) 20:41:16 435.000/436.395/437.385
Oscar 11 06 Feb 20:48:23 20:52:37 57° 260° (W) 20:56:52 145.826/435.025
HUMSAT D 06 Feb 20:49:28 20:53:03 30° 71° (ENE) 20:56:38 437.325/437.525
PCSat 06 Feb 20:49:59 20:55:26 79° 244° (WSW) 21:00:50 145.827
ISS 06 Feb 21:11:39 21:13:10 13° 13° (NNE) 21:14:42 145.825
50 SAT 06 Feb 21:17:57 21:19:43 13° 66° (ENE) 21:21:29 437.505
AIST 2 06 Feb 21:25:10 21:26:42 12° 319° (NW) 21:28:14 435.215
UNISAT 6 06 Feb 21:30:34 21:33:52 21° 95° (E) 21:37:11 437.425
AO-85 06 Feb 21:34:14 21:36:20 13° 255° (WSW) 21:38:23 145.980
ZACube-1 06 Feb 21:36:14 21:39:31 22° 265° (W) 21:42:47 437.345
VELOX 1 06 Feb 21:36:35 21:40:00 22° 67° (ENE) 21:43:26 145.980
RS-15 06 Feb 21:40:06 21:52:09 69° 245° (WSW) 22:04:19 29.354- 29.394
FUNcube-1 06 Feb 21:47:46 21:50:34 17° 267° (W) 21:53:21 145.935
AISAT 06 Feb 21:51:54 21:55:54 33° 70° (ENE) 21:59:55 437.250
AIST 1 06 Feb 21:51:59 21:56:22 72° 82° (E) 22:00:39
DELFI C3 06 Feb 21:56:52 21:59:25 16° 267° (W) 22:01:59 145.870
ESTCUBE 1 06 Feb 21:59:18 22:03:33 42° 72° (ENE) 22:07:50 437.505/2401.250
ANTELSAT 06 Feb 22:14:54 22:19:13 67° 102° (ESE) 22:23:35 437.575/2403.000
Cosmos 2499 06 Feb 22:18:13 22:25:53 40° 274° (W) 22:33:03 435.465 / 435.565
CUBEBUG 1 06 Feb 22:21:35 22:25:54 54° 73° (ENE) 22:30:15 437.445
TIGRISAT 06 Feb 22:23:02 22:27:21 79° 102° (ESE) 22:31:44 435.000
UKube-1 06 Feb 22:24:03 22:28:22 67° 74° (ENE) 22:32:40 .
GONETS M04 06 Feb 22:25:40 22:30:41 17° 283° (WNW) 22:35:43
HUMSAT D 06 Feb 22:25:43 22:28:43 20° 266° (W) 22:31:44 437.325/437.525
POLYITAN 1 06 Feb 22:25:48 22:28:55 20° 94° (E) 22:32:01 437.675
QB50P2 06 Feb 22:26:34 22:29:47 21° 95° (E) 22:33:00 145.880/145.840
DX 1 06 Feb 22:29:40 22:34:04 89° 266° (W) 22:38:29 434.975-435.025
SPROUT 06 Feb 22:40:02 22:43:46 29° 70° (ENE) 22:47:31 437.525
ISS 06 Feb 22:47:13 22:50:19 40° 32° (NNE) 22:53:25 145.825
BUGSAT 1 06 Feb 22:49:02 22:51:38 16° 93° (E) 22:54:12 437.445
50 SAT 06 Feb 22:49:55 22:53:24 39° 261° (W) 22:56:55 437.505
POPSAT HIP 1 06 Feb 22:56:38 23:00:39 44° 99° (E) 23:04:39 437.405
TISAT 1 06 Feb 23:03:14 23:06:21 20° 67° (ENE) 23:09:28 437.305
NANOSAT C BR1 06 Feb 23:03:31 23:07:38 52° 100° (E) 23:11:42 145.865
DUCHIFAT 1 06 Feb 23:06:32 23:10:38 54° 100° (E) 23:14:43 145.980
UNISAT 6 06 Feb 23:06:47 23:10:38 32° 289° (WNW) 23:14:30 437.425
QB50P1 06 Feb 23:09:31 23:13:42 64° 101° (E) 23:17:51 145.935-145.965
VELOX 1 06 Feb 23:12:13 23:16:16 34° 262° (W) 23:20:21 145.980
AISAT 06 Feb 23:28:58 23:32:26 22° 265° (W) 23:35:55 437.250
ESTCUBE 1 06 Feb 23:37:32 23:40:33 17° 267° (W) 23:43:35 437.505/2401.250
BEESAT 06 Feb 23:46:49 23:48:48 13° 61° (ENE) 23:50:47 436.000
ANTELSAT 06 Feb 23:54:05 23:55:23 11° 297° (WNW) 23:56:42 437.575/2403.000
RS-15 06 Feb 23:56:42 00:02:18 14° 265° (W) 00:07:56 29.354- 29.394
CUBEBUG 1 07 Feb 00:00:25 00:02:30 13° 269° (W) 00:04:36 437.445
POLYITAN 1 07 Feb 00:01:03 00:04:47 31° 289° (WNW) 00:08:30 437.675
QB50P2 07 Feb 00:01:56 00:05:38 30° 290° (WNW) 00:09:18 145.880/145.840
UKube-1 07 Feb 00:04:38 00:04:50 10° 270° (W) 00:05:02 .
CUSAT 1 07 Feb 00:11:59 00:16:06 15° 79° (ENE) 00:20:18 437.405
SPROUT 07 Feb 00:16:20 00:19:44 23° 265° (W) 00:23:09 437.525
BUGSAT 1 07 Feb 00:23:27 00:27:08 35° 289° (WNW) 00:30:48 437.445
ISS 07 Feb 00:24:05 00:26:35 20° 228° (SW) 00:29:05 145.825
POPSAT HIP 1 07 Feb 00:33:37 00:36:05 15° 295° (WNW) 00:38:33 437.405
SWISSCUBE 07 Feb 00:35:47 00:40:14 42° 71° (ENE) 00:44:44 437.505
TISAT 1 07 Feb 00:37:59 00:41:48 33° 263° (W) 00:45:39 437.305
NANOSAT C BR1 07 Feb 00:40:56 00:42:55 13° 296° (WNW) 00:44:55 145.865
DUCHIFAT 1 07 Feb 00:44:02 00:45:53 13° 296° (WNW) 00:47:45 145.980
QB50P1 07 Feb 00:47:45 00:48:56 11° 297° (WNW) 00:50:08 145.935-145.965
Oscar 19 07 Feb 01:00:46 01:05:45 48° 100° (E) 01:10:40 437.125/150
Gurwin Techsat 1B 07 Feb 01:05:10 01:09:01 20° 93° (E) 01:12:51 435.225
ITUPSAT 1 07 Feb 01:10:26 01:15:12 86° 76° (ENE) 01:20:00 437.325
Cosmos 2491 07 Feb 01:16:03 01:23:33 31° 70° (ENE) 01:31:02 435.465 / 435.565
PHONESAT 2.4 07 Feb 01:20:27 01:22:53 19° 150° (SSE) 01:25:19 2401.200-2431.200
BEESAT 07 Feb 01:21:14 01:25:58 73° 257° (WSW) 01:30:44 436.000
JAS-2 07 Feb 01:30:07 01:35:52 60° 100° (E) 01:41:04 435.910
CUSAT 1 07 Feb 01:49:24 01:57:05 78° 96° (E) 02:05:16 437.405
MOZHAYETS 4 07 Feb 01:50:47 01:52:24 12° 62° (ENE) 01:54:00
DANDE 07 Feb 01:54:53 02:01:55 53° 91° (E) 02:10:01 436.750
ITAMSAT 1 07 Feb 02:02:14 02:07:02 36° 98° (E) 02:11:48 435.822/435.867
YUBILEINY 07 Feb 02:07:12 02:14:08 27° 82° (E) 02:21:05 435.215
STARS 07 Feb 02:11:12 02:14:56 28° 69° (ENE) 02:18:41 437.465
SWISSCUBE 07 Feb 02:14:50 02:18:12 19° 266° (W) 02:21:37 437.505
BEESAT 3 07 Feb 02:18:08 02:21:58 46° 55° (NE) 02:25:45 437.485
KKS-1 07 Feb 02:18:30 02:22:55 63° 74° (ENE) 02:27:20 437.445
AO-7 07 Feb 02:30:15 02:36:32 23° 93° (E) 02:42:44 29.400- 29.500
BEESAT 2 07 Feb 02:36:17 02:40:09 46° 55° (NE) 02:43:59 435.950
Oscar 19 07 Feb 02:41:00 02:44:42 20° 296° (WNW) 02:48:21 437.125/150
Gurwin Techsat 1B 07 Feb 02:44:06 02:49:13 49° 289° (WNW) 02:54:19 435.225
PHONESAT 2.4 07 Feb 02:56:34 02:59:50 71° 166° (SSE) 03:03:07 2401.200-2431.200
Cosmos 2491 07 Feb 03:12:20 03:20:47 57° 270° (W) 03:29:17 435.465 / 435.565
JAS-2 07 Feb 03:16:33 03:20:18 18° 301° (WNW) 03:23:50 435.910
MOZHAYETS 4 07 Feb 03:24:25 03:28:57 71° 259° (W) 03:33:32
M-CUBED/EXP-1 PRIME 07 Feb 03:28:19 03:30:56 21° 102° (ESE) 03:33:39 437.505
CUSAT 1 07 Feb 03:34:06 03:40:12 24° 295° (WNW) 03:46:28 437.405
HORYU 2 07 Feb 03:37:56 03:41:38 25° 96° (E) 03:45:18 437.375
DANDE 07 Feb 03:38:29 03:45:13 35° 292° (WNW) 03:52:45 436.750
AUBIESAT-1 07 Feb 03:40:55 03:43:47 25° 103° (ESE) 03:46:46 437.475
ITAMSAT 1 07 Feb 03:41:57 03:46:20 28° 294° (WNW) 03:50:42 435.822/435.867
STARS 07 Feb 03:47:35 03:51:15 25° 264° (W) 03:54:56 437.465
Cosmos 2504 07 Feb 03:50:33 03:57:13 26° 81° (E) 04:04:05 435.465 / 435.565
CUBESAT XI-V 07 Feb 03:56:51 04:00:41 26° 68° (ENE) 04:04:33 437.345
BEESAT 3 07 Feb 03:57:13 03:59:19 14° 251° (WSW) 04:01:23 437.485
KKS-1 07 Feb 03:58:24 03:59:52 11° 269° (W) 04:01:21 437.445
YUBILEINY 07 Feb 04:01:33 04:10:12 63° 281° (W) 04:18:59 435.215
AIST 2 07 Feb 04:05:44 04:09:42 43° 54° (NE) 04:13:38 435.215
BEESAT 2 07 Feb 04:15:31 04:17:38 14° 251° (WSW) 04:19:45 435.950
AO-7 07 Feb 04:21:39 04:29:58 73° 291° (WNW) 04:38:13 29.400- 29.500
PHONESAT 2.4 07 Feb 04:33:53 04:37:09 75° 1° (N) 04:40:26 2401.200-2431.200
CUTE-I 07 Feb 04:57:11 04:59:58 14° 91° (E) 05:02:43 437.470
STRAND 1 07 Feb 04:57:30 05:00:39 17° 62° (ENE) 05:03:49 437.568
M-CUBED/EXP-1 PRIME 07 Feb 05:03:01 05:05:31 20° 295° (WNW) 05:08:06 437.505
SO-50 07 Feb 05:04:43 05:09:26 50° 117° (ESE) 05:14:13 436.795
Cubesat XI-IV 07 Feb 05:09:05 05:12:49 19° 93° (E) 05:16:31 437.490
HORYU 2 07 Feb 05:14:21 05:18:09 28° 291° (WNW) 05:21:56 437.375
AUBIESAT-1 07 Feb 05:15:54 05:18:15 18° 296° (WNW) 05:20:39 437.475
LilacSat-2 07 Feb 05:16:35 05:18:40 14° 92° (E) 05:20:43 437.200
CUBESAT XI-V 07 Feb 05:33:48 05:37:56 31° 264° (W) 05:42:07 437.345
Cosmos 2504 07 Feb 05:41:24 05:49:47 66° 281° (W) 05:58:39 435.465 / 435.565
AIST 2 07 Feb 05:45:16 05:47:50 16° 250° (WSW) 05:50:25 435.215
YUBILEINY 07 Feb 06:06:32 06:09:04 11° 304° (WNW) 06:11:36 435.215
PHONESAT 2.4 07 Feb 06:11:13 06:14:26 56° 199° (SSW) 06:17:38 2401.200-2431.200
AO-7 07 Feb 06:16:37 06:21:20 17° 311° (NW) 06:26:02 29.400- 29.500
DOVE 4 07 Feb 06:32:28 06:34:37 14° 91° (E) 06:36:43 437.250
GOMX 1 07 Feb 06:34:11 06:38:10 30° 96° (E) 06:41:56 467.674
STRAND 1 07 Feb 06:34:17 06:39:18 60° 259° (WSW) 06:44:24 437.568
CUTE-I 07 Feb 06:35:07 06:40:29 70° 286° (WNW) 06:45:49 437.470
SO-50 07 Feb 06:46:15 06:50:12 23° 315° (NW) 06:54:10 436.795
Cubesat XI-IV 07 Feb 06:47:57 06:53:11 53° 288° (WNW) 06:58:23 437.490
LilacSat-2 07 Feb 06:49:39 06:53:07 35° 288° (WNW) 06:56:35 437.200
BRITE-PL 07 Feb 06:49:51 06:54:45 83° 282° (WNW) 06:59:14 437.365/2234.400
PRISM 07 Feb 06:55:31 06:59:39 76° 77° (ENE) 07:03:51 437.425
CUTE 1.7 + AOD 2 07 Feb 07:21:46 07:25:00 21° 94° (E) 07:28:13 437.475
COMPASS 1 07 Feb 07:26:23 07:28:08 12° 91° (E) 07:29:53 437.405
GONETS M04 07 Feb 07:32:50 07:38:48 21° 80° (E) 07:44:46
SEEDS 07 Feb 07:33:39 07:36:53 21° 94° (E) 07:40:07 437.485
Cosmos 2504 07 Feb 07:41:38 07:45:08 13° 303° (WNW) 07:48:41 435.465 / 435.565
CINEMA 3 07 Feb 07:48:20 07:52:04 32° 97° (E) 07:55:48 145.822/145.860
PHONESAT 2.4 07 Feb 07:49:32 07:51:17 14° 213° (SSW) 07:53:00 2401.200-2431.200
O/OREOS (USA 219) 07 Feb 07:56:31 08:00:48 48° 107° (ESE) 08:05:08 437.305
AAUSAT CUBESAT 2 07 Feb 07:56:42 08:00:03 23° 95° (E) 08:03:23 437.432
HO-68 07 Feb 07:57:46 08:04:51 56° 101° (ESE) 08:11:52 435.675
CANX-2 07 Feb 08:05:28 08:09:45 76° 101° (E) 08:14:03 2200.000
DOVE 4 07 Feb 08:08:32 08:12:39 44° 287° (WNW) 08:16:36 437.250
GOMX 1 07 Feb 08:12:36 08:16:05 22° 294° (WNW) 08:19:25 467.674
CUBEBUG 2 07 Feb 08:16:17 08:19:39 23° 95° (E) 08:23:02 437.445
UWE-3 07 Feb 08:23:45 08:26:54 20° 94° (E) 08:30:05 435.000/436.395/437.385
UNISAT 6 07 Feb 08:29:22 08:32:16 18° 66° (ENE) 08:35:08 437.425
Oscar 11 07 Feb 08:36:43 08:40:25 26° 96° (E) 08:44:04 145.826/435.025
CUTE 1.7 + AOD 2 07 Feb 08:57:04 09:00:53 32° 289° (WNW) 09:04:41 437.475
